Location: Bebenhausen
(48.5606°N, 9.0602°E)
Time: 13:17:27
(UTC+00:00)

Daily predictions for brighter satellites

Satellite Brightness Start Highest point End
(mag) Time Altitude Azimuth Time Altitude Azimuth Time Altitude Azimuth
Cosmos 2233 Rocket 4.2 18:12:11 10° SSE 18:18:02 49° E 18:23:56 10° NNE
Cosmos 468 Rocket 4.1 18:14:25 10° SSW 18:19:32 84° WNW 18:24:43 10° NNE
Lacrosse 4 Rocket 2.3 18:15:56 10° NNW 18:19:59 36° NE 18:23:58 10° ESE
Cosmos 1943 Rocket 3.9 18:16:26 10° N 18:20:07 18° NE 18:23:47 10° E
Meteor 2-4 Rocket 3.9 18:14:21 10° N 18:20:17 65° ENE 18:26:08 10° SSE
USA 59 Rocket 1.1 18:17:57 10° NNW 18:21:03 27° NE 18:24:57 10° E
Cosmos 2292 Rocket 3.2 18:17:01 10° N 18:21:26 83° E 18:24:52 10° S
Cosmos 372 Rocket 4.0 18:17:41 10° NNW 18:22:53 87° ENE 18:28:05 10° SSE
ADEOS 3.6 18:18:57 10° SSE 18:24:09 79° ENE 18:29:24 10° NNW
Cosmos 841 Rocket 3.6 18:19:39 10° S 18:24:42 55° ESE 18:29:46 10° NNE
Intercosmos 24 4.1 18:22:56 10° NNW 18:26:29 69° W 18:30:22 10° S
PAYLOAD B 4.4 18:22:09 10° SE 18:27:36 56° ENE 18:33:04 10° N
Cosmos 1328 Rocket 4.4 18:25:27 10° N 18:29:16 30° ENE 18:33:04 10° SE
Meteor 1-4 Rocket 3.9 18:28:39 10° NE 18:30:02 13° ENE 18:31:20 10° E
Aureole 1 Rocket 3.7 18:26:15 10° NNW 18:30:45 53° WSW 18:34:17 10° S
USA 308 2.1 18:30:26 10° N 18:31:01 13° NNE 18:31:35 11° ENE
Cosmos 1674 3.4 18:29:01 10° NNE 18:31:55 26° ENE 18:34:47 10° SE
Cosmos 1743 2.9 18:29:45 10° SSE 18:33:07 41° E 18:36:30 10° NNE
CZ-4B DEB 4.2 18:27:41 10° SSE 18:33:12 77° ENE 18:38:44 10° NNW
SeaSat 1 4.5 18:31:45 10° NNE 18:36:04 31° NW 18:40:22 10° WSW
Tsikada Rocket 4.0 18:30:03 10° N 18:36:20 80° E 18:42:39 10° SSE
Cosmos 540 Rocket 4.4 18:31:29 10° SW 18:36:29 54° WNW 18:41:29 10° NNE
Cosmos 2278 Rocket 3.3 18:31:36 10° NNW 18:36:30 29° NE 18:41:07 11° ESE
NOSS 2-1 (C) 4.2 18:34:17 10° NNW 18:37:34 34° NE 18:41:26 12° ESE
Kosmos-1783 4.5 18:36:44 10° SSE 18:38:03 13° SE 18:38:15 13° SE
Meteor 1-18 Rocket 4.3 18:33:03 10° N 18:39:00 71° ENE 18:44:52 10° SSE
Genesis I 3.1 18:37:25 10° SW 18:40:51 74° NW 18:44:21 10° NE
CZ-4B R/B 2.7 18:37:10 10° SSE 18:40:53 71° ENE 18:44:50 10° N
CZ-4B R/B 3.4 18:35:34 10° SE 18:40:54 53° ENE 18:46:10 10° N
Iridium 4 Rocket 3.0 18:37:01 10° N 18:41:14 59° E 18:45:18 10° SSE
Cosmos 2016 Rocket 4.2 18:37:50 10° SSW 18:43:56 77° W 18:50:04 10° N
Resurs 1-3 4.1 18:40:43 10° S 18:44:59 63° WSW 18:49:19 10° NNW
USA 290 4.1 18:43:13 10° N 18:45:27 17° NE 18:47:00 13° E
TSX-5 3.9 18:43:29 10° NNW 18:46:28 38° NE 18:48:41 16° ESE
CARTOSAT-1 3.6 18:42:31 10° SSE 18:46:40 56° ENE 18:50:51 10° N
SPOT 5 4.1 18:45:11 13° ESE 18:48:14 22° ENE 18:51:45 10° NNE
SPOT 1/Viking Rocket 3.9 18:43:22 10° S 18:48:32 72° WSW 18:53:43 10° NNW
NOSS 8 (A) 4.4 18:47:11 10° SW 18:51:17 82° SE 18:54:28 10° NE
ATLAS 2AS CENTAUR R/B 4.0 18:46:21 10° WSW 18:53:13 43° NW 18:59:52 10° NE
USA 306 3.9 18:51:57 10° S 18:54:04 17° SE 18:54:09 17° SE
ATLAS CENTAUR R/B 3.8 18:51:23 10° WNW 18:56:09 43° SW 19:03:20 10° SSE
ARGOS Delta rocket 4.0 18:51:56 10° SSE 18:57:09 87° W 19:02:06 10° NNW
USA 215 4.4 18:52:51 10° E 18:57:19 19° ESE 19:01:44 10° SSE
Cosmos 1151 Rocket 3.7 18:53:14 10° NNW 18:57:27 58° W 19:01:36 10° S
MOS 1-B 4.5 18:52:20 10° SE 18:58:00 59° ENE 19:03:42 10° N
Cosmos 2360 Rocket 2.9 18:52:37 10° SW 18:58:10 57° WNW 19:03:45 10° NNE
Okean O Rocket 2.0 18:54:28 12° SE 18:58:19 44° ENE 19:02:33 10° N
Cosmos 1340 2.4 18:57:04 10° SSW 19:00:20 76° WNW 19:03:37 10° N
USA 186 1.7 18:58:43 10° SSE 19:01:54 90° NE 19:05:09 10° NNW
Resurs 01 Rocket 1.6 18:58:25 10° SSE 19:02:51 83° ENE 19:07:18 10° NNW
Cosmos 2237 Rocket 3.4 19:04:47 16° SE 19:06:59 20° E 19:10:58 10° NE
Cosmos 2322 Rocket 3.6 19:01:48 10° WSW 19:07:12 42° NW 19:12:37 10° NNE
Helios 1A 3.5 19:05:04 10° N 19:09:05 61° WNW 19:13:05 10° SSW
Cosmos 1814 Rocket 4.2 19:06:00 10° S 19:11:03 47° ESE 19:16:06 10° NNE
ACS3 Solar Sail 2.0 19:05:09 11° SE 19:11:15 57° ENE 19:17:30 10° N
BlueWalker 3 1.9 19:09:48 10° WNW 19:13:34 73° NNE 19:15:32 26° ESE
NOSS 2-1 (E) 3.6 19:10:00 10° NW 19:13:40 61° NE 19:16:32 23° ESE
Cosmos 44 Rocket 3.4 19:09:11 10° NW 19:13:56 70° SW 19:17:37 16° SSE
Okean-O 3.2 19:12:12 22° ESE 19:14:30 38° ENE 19:18:36 10° N
Cosmos 2333 Rocket 3.4 19:09:36 10° SW 19:15:09 48° NW 19:20:45 10° NNE
Cosmos 1515 Rocket 4.0 19:11:17 10° N 19:15:23 41° ENE 19:17:32 24° SE
SL-08 R/B 4.5 19:11:42 10° N 19:16:26 48° WNW 19:21:08 10° SW
Feng Yun 1-1 Rocket 4.4 19:10:44 10° SSE 19:16:27 88° WSW 19:22:22 10° NNW
ATLAS 3B R/B 4.4 19:11:31 10° NW 19:18:24 34° WSW 19:25:07 10° S
Cosmos 2219 Rocket 2.5 19:13:20 10° SW 19:19:00 71° WNW 19:24:42 10° NNE
CSL-04 Rocket 3.7 19:17:40 10° SSE 19:23:04 82° WSW 19:28:26 10° NNW
NOSS 2-1 (D) 3.4 19:20:01 10° NW 19:23:42 77° NE 19:26:15 27° SE
BREEZE-M DEB (TANK) 1.6 19:22:34 10° WSW 19:24:36 78° SSE 19:25:16 43° E
Cosmos 1842 2.9 19:22:12 10° N 19:25:50 80° E 19:27:54 24° SSE
Cosmos 1766 Rocket 3.6 19:27:50 10° SSW 19:32:10 78° WNW 19:36:34 10° N
USA 267 3.8 19:29:00 17° E 19:33:54 52° NNE 19:40:14 10° WNW
DELTA 2 DEB (DPAF) 4.3 19:31:08 10° NNE 19:35:06 40° E 19:36:00 35° SE
Cosmos 1980 4.2 19:30:17 10° S 19:35:22 35° ESE 19:40:29 10° NE
Cosmos 2369 Rocket 4.2 19:33:34 10° N 19:37:06 16° NE 19:39:53 12° ENE
BREEZE-M R/B 4.1 19:33:25 10° W 19:37:56 88° SSW 19:49:01 19° ESE
Meteor 2-17 Rocket 4.4 19:33:00 10° N 19:39:04 87° W 19:44:32 13° S
Cosmos 2322 3.7 19:34:07 10° SSW 19:39:46 85° WNW 19:45:28 10° NNE
Meteor 1-13 Rocket 4.4 19:34:01 10° N 19:39:54 62° ENE 19:43:01 28° SSE
USA 276 1.9 19:38:46 10° WNW 19:41:31 63° N 19:41:31 63° N
USA 32 4.5 19:37:13 10° N 19:42:12 42° ENE 19:43:42 34° ESE
Cosmos 1400 Rocket 4.1 19:39:08 10° NNW 19:42:43 37° W 19:46:14 10° SSW
Spot 2 Rocket 4.3 19:41:52 29° E 19:43:03 32° ENE 19:47:29 10° N
MOS 1 4.2 19:42:10 24° SSE 19:45:44 79° ENE 19:51:27 10° NNW
PSLV R/B 3.5 19:44:57 39° S 19:46:11 83° WSW 19:49:47 10° NNW
Cosmos 1707 2.7 19:43:49 10° NNW 19:47:22 68° W 19:48:45 34° S
Cosmos 1315 Rocket 3.1 19:44:13 10° N 19:48:02 45° ENE 19:48:16 44° E
CZ-4 R/B 3.8 19:45:17 10° SW 19:48:09 20° W 19:51:05 10° NW
Meteor 2-10 4.2 19:44:16 18° S 19:48:21 60° E 19:53:57 10° NNE
Cosmos 1733 2.8 19:49:20 64° E 19:49:20 64° E 19:52:42 10° NNE
Cosmos 1726 4.4 19:47:32 10° WSW 19:49:36 18° WNW 19:51:40 10° NNW
In-Cosmos 22 4.1 19:44:20 10° N 19:50:07 77° ENE 19:53:04 30° SSE
Cosmos 1570 Rocket 4.4 19:49:52 37° SE 19:50:49 41° ESE 19:55:45 10° NE
Cosmos 1408 Rocket 3.6 19:50:28 46° SE 19:51:11 52° E 19:55:28 10° NNE
Cosmos 1536 2.6 19:55:08 33° SSW 19:56:44 85° W 20:00:35 10° N
Lacrosse 4 Rocket 2.9 19:54:16 10° NW 19:58:10 32° WSW 20:00:26 20° SSW
COSMOS 2428 2.9 19:53:09 10° SSW 19:58:52 76° WNW 20:04:37 10° NNE
Cosmos 1818 4.1 19:53:57 10° SW 19:59:21 61° NW 20:04:48 10° NE
Cosmos 2195 Rocket 4.5 19:55:46 10° N 20:01:50 61° ENE 20:03:57 39° SE
Nadezhda 4 Rocket 3.9 19:55:35 10° N 20:01:51 90° SSW 20:05:35 26° S
Meteor 1-23 Rocket 4.3 19:56:20 10° N 20:01:52 56° ENE 20:03:21 43° ESE
Meteor 1-4 Rocket 3.8 19:59:38 10° NW 20:01:56 24° W 20:02:22 23° WSW
Cosmos 1356 Rocket 4.0 19:57:51 10° NNW 20:01:58 56° W 20:03:51 29° SSW
SL-16 R/B 4.4 20:07:18 10° ENE 20:07:18 10° ENE 20:07:23 10° ENE
Cosmos 1092 Rocket 4.2 19:57:48 10° N 20:03:58 53° ENE 20:05:51 40° SE
Cosmos 1943 Rocket 2.1 19:59:19 10° NNW 20:04:51 74° ENE 20:06:28 47° SE
Terra 1.8 20:09:10 56° ESE 20:09:45 61° ENE 20:14:25 10° N
SL-14 R/B 4.0 20:06:12 10° N 20:09:04 39° NE 20:09:04 39° NE
USA 59 Rocket 0.8 20:06:49 10° NW 20:10:38 48° SW 20:11:54 38° S
Cosmos 2026 Rocket 4.0 20:04:34 10° N 20:10:48 60° ENE 20:12:32 44° SE
Cosmos 1464 Rocket 4.1 20:05:30 10° SSW 20:11:47 77° W 20:18:12 10° N
Cosmos 158 Rocket 4.1 20:13:21 47° ENE 20:13:21 47° ENE 20:17:21 10° NNE
Cosmos 1805 Rocket 3.8 20:14:27 52° ENE 20:14:27 52° ENE 20:18:05 10° NNE
Meteor 1-11 Rocket 3.6 20:09:42 19° S 20:13:49 89° E 20:19:25 10° NNE
Ariane Rocket 3.2 20:14:46 48° E 20:15:13 50° ENE 20:20:07 10° N
CRYOSAT 2 4.2 20:10:22 10° N 20:15:18 75° E 20:16:10 58° SSE
Cosmos 1125 Rocket 3.4 20:12:21 10° NNW 20:17:34 86° WSW 20:18:45 55° SSE
SPOT 3 Rocket 3.7 20:17:15 49° E 20:17:43 51° ENE 20:22:42 10° N
Cosmos 1634 Rocket 4.2 20:17:05 45° ESE 20:17:51 47° E 20:23:51 10° NNE
Cosmos 839 Rocket 4.4 20:11:10 10° SSW 20:19:56 68° ESE 20:26:53 10° NE
USA 290 3.6 20:16:58 10° NW 20:19:43 34° W 20:19:43 34° W
ERS-1 Rocket 2.8 20:19:35 58° SSE 20:20:37 88° ENE 20:25:41 10° NNW
Cosmos 2278 Rocket 2.5 20:15:23 10° NW 20:20:58 61° WSW 20:22:57 39° S
Meteor 2-9 Rocket 4.0 20:20:43 36° S 20:22:59 89° W 20:28:25 10° NNE
BREEZE-M DEB (TANK) 4.2 20:20:04 10° WNW 20:23:33 85° NNE 20:26:06 40° E
SPOT 5 3.4 20:24:19 35° SSW 20:25:58 51° W 20:30:27 10° NNW
IRS-1A Rocket 4.4 20:25:48 42° S 20:27:51 76° WSW 20:33:37 10° NNW
Cosmos 2034 Rocket 4.0 20:26:34 24° SSW 20:30:34 80° W 20:36:47 10° N
Celestis-02/Orion 38 4.4 20:28:59 10° NNE 20:34:00 72° ESE 20:34:00 72° ESE
Okean O Rocket 3.8 20:31:49 12° SW 20:34:46 22° W 20:38:17 10° NW
Cosmos 2208 Rocket 3.9 20:35:48 69° E 20:35:48 69° E 20:40:50 10° NNE
Cosmos 1627 Rocket 4.4 20:29:17 10° N 20:35:39 87° E 20:37:10 55° SSE
NOSS 0 Rocket 4.2 20:33:17 10° SW 20:39:30 67° WNW 20:45:45 10° NNE
Resurs 01 Rocket 4.5 20:38:08 10° WSW 20:39:52 12° W 20:41:36 10° WNW
USA 215 3.1 20:34:41 10° ENE 20:41:12 64° SE 20:47:40 10° SW
Cosmos 1656 Rocket 4.2 20:40:43 10° NNW 20:46:11 46° NE 20:46:20 46° ENE
MOS 1 Rocket 4.3 20:45:59 39° SW 20:47:10 46° W 20:52:08 10° NNW
Meteor 1-21 4.1 20:41:28 10° N 20:47:15 85° E 20:47:41 76° SSE
Cosmos 2228 Rocket 3.8 20:43:01 10° N 20:46:31 48° NNE 20:46:31 48° NNE
Meteor 2-12 Rocket 4.3 20:42:29 10° N 20:48:41 88° E 20:49:33 68° SSE
Cosmos 2237 Rocket 2.3 20:46:17 19° SW 20:50:25 72° WNW 20:56:05 10° NNE
Okean-O 4.4 20:49:39 22° WSW 20:50:59 25° W 20:54:40 10° NW
BlueWalker 3 4.1 20:48:09 10° W 20:49:46 20° W 20:49:46 20° W
Cosmos 2297 4.2 20:48:24 10° NNW 20:53:48 47° NE 20:53:48 47° NE
Aureole 3 Rocket 4.4 20:47:44 16° SSW 20:53:56 63° W 20:59:25 10° N
ACS3 Solar Sail 3.5 20:50:27 11° SSW 20:55:40 29° W 21:01:10 10° NNW
Sich 1 3.9 20:57:04 47° WNW 20:57:04 47° WNW 21:01:04 10° N
Cosmos 2279 Rocket 3.9 21:06:50 71° ENE 21:06:50 71° ENE 21:12:45 10° NNE
BREEZE-M DEB (TANK) 3.3 20:56:35 10° W 21:10:31 88° N 21:10:46 83° E
USA 267 3.1 21:16:21 78° S 21:16:43 82° SW 21:23:19 10° WNW
Spot 2 Rocket 4.5 21:21:59 38° W 21:21:59 38° W 21:26:35 10° NNW
Cosmos 2369 Rocket 2.6 21:16:39 10° NNW 21:21:39 56° NNE 21:21:39 56° NNE
NOSS 3-3 (A) 4.2 21:25:46 55° NE 21:25:46 55° NE 21:30:48 10° NE
SL-16 R/B 3.1 21:49:08 42° NNE 21:49:08 42° NNE 21:52:50 10° NNE
Terra 4.0 21:47:52 18° W 21:47:52 18° W 21:50:58 10° NW
Cosmos 1943 Rocket 4.1 21:44:10 10° WNW 21:47:57 19° W 21:47:58 19° W
NOSS 3-4 (A) 3.7 21:41:20 10° NW 21:47:59 84° NNE 21:47:59 84° NNE
NOSS 3-4 (C) 3.7 21:41:25 10° NW 21:48:05 84° NNE 21:48:05 84° NNE
Cosmos 2266 Rocket 4.2 21:50:10 10° N 21:55:29 66° NNW 21:55:29 66° NNW
Cosmos 1655 Rocket 4.4 22:10:50 10° N 22:15:58 60° NNW 22:15:58 60° NNW
USA 215 3.7 22:17:48 10° NE 22:24:11 59° NNW 22:30:35 10° W
ATLAS 2AS CENTAUR R/B 4.4 22:33:18 10° NW 22:39:11 28° NNE 22:43:40 15° ENE
Cosmos 2369 Rocket 4.3 23:01:23 10° NW 23:03:25 18° WNW 23:03:25 18° WNW
Cosmos 1980 Rocket 4.4 23:26:00 10° N 23:29:56 19° NE 23:31:54 16° ENE
SL-16 R/B 4.3 23:30:58 19° NW 23:32:08 20° NW 23:36:14 10° N
